Time,TemperatureF,DewpointF,PressureIn,WindDirection,WindDirectionDegrees,WindSpeedMPH,WindSpeedGustMPH,Humidity,HourlyPrecipIn,Conditions,Clouds,dailyrainin,SoftwareType,DateUTC
2013-10-04 00:32:00,79.3,72.2,30.02,East,98,0.0,1.0,79,0.00,,CLR,0.00,VWS V13.01,2013-10-04 04:32:00,
2013-10-04 00:34:00,79.3,72.2,30.02,East,98,0.0,2.0,79,0.00,,CLR,0.00,VWS V13.01,2013-10-04 04:34:00,
2013-10-04 00:35:00,79.4,72.3,30.02,East,98,0.0,2.0,79,0.00,,CLR,0.00,VWS V13.01,2013-10-04 04:35:00,
2013-10-04 00:36:00,79.3,72.2,30.02,East,98,0.0,2.0,79,0.00,,CLR,0.00,VWS V13.01,2013-10-04 04:36:00,
2013-10-04 00:38:00,79.3,72.2,30.02,East,98,0.0,2.0,79,0.00,,CLR,0.00,VWS V13.01,2013-10-04 04:38:00,
2013-10-04 00:39:00,79.2,72.5,30.01,East,98,0.0,2.0,80,0.00,,CLR,0.00,VWS V13.01,2013-10-04 04:39:00,
2013-10-04 00:42:00,78.9,72.2,30.02,East,98,0.0,2.0,80,0.00,,CLR,0.00,VWS V13.01,2013-10-04 04:42:00,
2013-10-04 00:43:00,78.8,72.1,30.01,East,98,0.0,2.0,80,0.00,,CLR,0.00,VWS V13.01,2013-10-04 04:43:00,
2013-10-04 00:44:00,78.8,72.1,30.01,East,98,0.0,2.0,80,0.00,,CLR,0.00,VWS V13.01,2013-10-04 04:44:00,
2013-10-04 00:45:00,78.7,72.4,30.01,East,98,0.0,2.0,81,0.00,,CLR,0.00,VWS V13.01,2013-10-04 04:45:00,
2013-10-04 00:46:00,78.7,72.4,30.02,East,98,0.0,2.0,81,0.00,,CLR,0.00,VWS V13.01,2013-10-04 04:46:00,
2013-10-04 00:50:00,78.6,72.3,30.02,East,98,0.0,2.0,81,0.00,,CLR,0.00,VWS V13.01,2013-10-04 04:50:00,
2013-10-04 00:52:00,78.6,72.3,30.02,East,98,0.0,2.0,81,0.00,,CLR,0.00,VWS V13.01,2013-10-04 04:52:00,
2013-10-04 00:55:00,78.7,72.4,30.02,East,98,0.0,2.0,81,0.00,,CLR,0.00,VWS V13.01,2013-10-04 04:55:00,
2013-10-04 00:57:00,78.6,72.3,30.02,East,98,0.0,2.0,81,0.00,,CLR,0.00,VWS V13.01,2013-10-04 04:57:00,
2013-10-04 01:00:00,78.4,72.4,30.02,East,98,0.0,2.0,82,0.00,,FEW026,0.00,VWS V13.01,2013-10-04 05:00:00,
2013-10-04 01:01:00,78.4,72.4,30.02,East,98,0.0,2.0,82,0.00,,FEW026,0.00,VWS V13.01,2013-10-04 05:01:00,
2013-10-04 01:03:00,78.3,72.4,30.02,East,98,0.0,0.0,82,0.00,,FEW026,0.00,VWS V13.01,2013-10-04 05:03:00,
2013-10-04 01:04:00,78.4,72.4,30.02,East,98,0.0,0.0,82,0.00,,FEW026,0.00,VWS V13.01,2013-10-04 05:04:00,
2013-10-04 01:06:00,78.2,72.3,30.02,East,98,0.0,0.0,82,0.00,,FEW026,0.00,VWS V13.01,2013-10-04 05:06:00,
2013-10-04 01:07:00,78.2,72.3,30.02,East,98,0.0,0.0,82,0.00,,FEW026,0.00,VWS V13.01,2013-10-04 05:07:00,
2013-10-04 01:09:00,78.3,72.4,30.02,East,98,0.0,0.0,82,0.00,,FEW026,0.00,VWS V13.01,2013-10-04 05:09:00,
2013-10-04 01:11:00,78.3,72.7,30.01,East,98,0.0,0.0,83,0.00,,FEW026,0.00,VWS V13.01,2013-10-04 05:11:00,
2013-10-04 01:13:00,78.4,72.8,30.01,East,98,0.0,2.0,83,0.00,,FEW026,0.00,VWS V13.01,2013-10-04 05:13:00,
2013-10-04 01:14:00,78.4,72.8,30.01,East,98,1.0,2.0,83,0.00,,FEW026,0.00,VWS V13.01,2013-10-04 05:14:00,
2013-10-04 01:16:00,78.5,72.9,30.01,East,98,1.0,2.0,83,0.00,,FEW026,0.00,VWS V13.01,2013-10-04 05:16:00,
2013-10-04 01:18:00,78.5,72.9,30.01,East,98,1.0,2.0,83,0.00,,FEW026,0.00,VWS V13.01,2013-10-04 05:18:00,
2013-10-04 01:23:00,78.6,73.0,30.01,East,98,0.0,2.0,83,0.00,,FEW026,0.00,VWS V13.01,2013-10-04 05:23:00,
2013-10-04 01:24:00,78.5,72.9,30.01,East,98,0.0,2.0,83,0.00,,FEW026,0.00,VWS V13.01,2013-10-04 05:24:00,
2013-10-04 01:26:00,78.5,72.9,30.01,East,98,0.0,2.0,83,0.00,,FEW026,0.00,VWS V13.01,2013-10-04 05:26:00,
2013-10-04 01:31:00,78.7,72.8,30.01,East,98,1.0,2.0,82,0.00,,FEW026,0.00,VWS V13.01,2013-10-04 05:31:00,
2013-10-04 01:36:00,78.6,73.0,30.01,East,98,1.0,1.0,83,0.00,,FEW026,0.00,VWS V13.01,2013-10-04 05:36:00,
2013-10-04 01:41:00,78.4,72.8,30.01,East,98,0.0,2.0,83,0.00,,FEW026,0.00,VWS V13.01,2013-10-04 05:41:00,
2013-10-04 01:46:00,78.3,72.7,30.01,East,98,1.0,2.0,83,0.00,,FEW026,0.00,VWS V13.01,2013-10-04 05:46:00,
2013-10-04 01:51:00,78.4,72.8,30.01,East,98,0.0,2.0,83,0.00,,FEW026,0.00,VWS V13.01,2013-10-04 05:51:00,
2013-10-04 01:56:00,78.4,72.8,30.01,East,98,0.0,2.0,83,0.00,,FEW026,0.00,VWS V13.01,2013-10-04 05:56:00,
2013-10-04 02:01:00,78.3,72.7,30.01,East,98,0.0,2.0,83,0.00,,CLR,0.00,VWS V13.01,2013-10-04 06:01:00,
2013-10-04 02:06:00,78.2,72.6,30.00,East,98,0.0,1.0,83,0.00,,CLR,0.00,VWS V13.01,2013-10-04 06:06:00,
2013-10-04 02:11:00,78.0,72.8,30.00,East,98,0.0,1.0,84,0.00,,CLR,0.00,VWS V13.01,2013-10-04 06:11:00,
2013-10-04 02:16:00,78.0,72.8,30.00,East,98,0.0,1.0,84,0.00,,CLR,0.00,VWS V13.01,2013-10-04 06:16:00,
2013-10-04 02:21:00,78.0,72.8,30.00,East,93,0.0,2.0,84,0.00,,CLR,0.00,VWS V13.01,2013-10-04 06:21:00,
2013-10-04 02:26:00,78.2,73.0,30.00,East,93,0.0,2.0,84,0.00,,CLR,0.00,VWS V13.01,2013-10-04 06:26:00,
2013-10-04 02:31:00,78.4,73.2,30.00,East,93,0.0,2.0,84,0.00,,CLR,0.00,VWS V13.01,2013-10-04 06:31:00,
2013-10-04 02:36:00,78.4,73.2,30.00,ESE,110,1.0,4.0,84,0.00,,CLR,0.00,VWS V13.01,2013-10-04 06:36:00,
2013-10-04 02:41:00,78.6,73.4,30.00,ESE,110,2.0,4.0,84,0.00,,CLR,0.00,VWS V13.01,2013-10-04 06:41:00,
2013-10-04 02:46:00,78.7,73.1,30.00,SE,134,0.0,4.0,83,0.00,,CLR,0.00,VWS V13.01,2013-10-04 06:46:00,
2013-10-04 02:51:00,78.7,73.1,30.00,SE,134,2.0,4.0,83,0.00,,CLR,0.00,VWS V13.01,2013-10-04 06:51:00,
2013-10-04 02:55:00,78.9,73.3,30.00,SE,134,1.0,4.0,83,0.00,,CLR,0.00,VWS V13.01,2013-10-04 06:55:00,
2013-10-04 03:00:00,78.8,73.2,29.99,SE,134,0.0,4.0,83,0.00,,FEW028,0.00,VWS V13.01,2013-10-04 07:00:00,
2013-10-04 03:05:00,78.9,73.3,30.00,SE,132,0.0,2.0,83,0.00,,FEW028,0.00,VWS V13.01,2013-10-04 07:05:00,
2013-10-04 03:10:00,78.8,73.2,30.00,SE,132,1.0,2.0,83,0.00,,FEW028,0.00,VWS V13.01,2013-10-04 07:10:00,
2013-10-04 03:15:00,78.8,72.8,30.00,SE,132,1.0,2.0,82,0.00,,FEW028,0.00,VWS V13.01,2013-10-04 07:15:00,
2013-10-04 03:20:00,78.3,73.1,29.99,SE,132,0.0,2.0,84,0.00,,FEW028,0.00,VWS V13.01,2013-10-04 07:20:00,
2013-10-04 03:25:00,78.2,73.0,30.00,SE,132,0.0,2.0,84,0.00,,FEW028,0.00,VWS V13.01,2013-10-04 07:25:00,
2013-10-04 03:30:00,78.0,72.8,29.99,SE,132,0.0,2.0,84,0.00,,FEW028,0.00,VWS V13.01,2013-10-04 07:30:00,
2013-10-04 03:35:00,77.9,72.7,30.00,SE,132,0.0,1.0,84,0.00,,FEW028,0.00,VWS V13.01,2013-10-04 07:35:00,
2013-10-04 03:40:00,77.9,72.7,29.99,SE,132,0.0,1.0,84,0.00,,FEW028,0.00,VWS V13.01,2013-10-04 07:40:00,
2013-10-04 03:45:00,77.8,72.6,29.99,SE,131,1.0,2.0,84,0.00,,FEW028,0.00,VWS V13.01,2013-10-04 07:45:00,
2013-10-04 03:50:00,77.7,72.5,29.99,SE,131,1.0,2.0,84,0.00,,FEW028,0.00,VWS V13.01,2013-10-04 07:50:00,
2013-10-04 03:55:00,77.8,72.6,29.99,SE,131,0.0,2.0,84,0.00,,FEW028,0.00,VWS V13.01,2013-10-04 07:55:00,
2013-10-04 04:00:00,77.8,72.9,29.99,SE,131,0.0,2.0,85,0.00,,FEW028,0.00,VWS V13.01,2013-10-04 08:00:00,
2013-10-04 04:05:00,77.6,72.4,29.99,SE,132,0.0,1.0,84,0.00,,FEW028,0.00,VWS V13.01,2013-10-04 08:05:00,
2013-10-04 04:10:00,77.7,72.5,29.99,SE,131,0.0,1.0,84,0.00,,FEW028,0.00,VWS V13.01,2013-10-04 08:10:00,
2013-10-04 04:15:00,77.4,72.2,29.99,SE,131,0.0,1.0,84,0.00,,FEW028,0.00,VWS V13.01,2013-10-04 08:15:00,
2013-10-04 04:20:00,77.3,72.1,29.99,SE,132,0.0,1.0,84,0.00,,FEW028,0.00,VWS V13.01,2013-10-04 08:20:00,
2013-10-04 04:25:00,77.6,72.4,29.99,SE,131,1.0,4.0,84,0.00,,FEW028,0.00,VWS V13.01,2013-10-04 08:25:00,
2013-10-04 04:30:00,77.9,72.3,29.99,SE,131,0.0,4.0,83,0.00,,FEW028,0.00,VWS V13.01,2013-10-04 08:30:00,
2013-10-04 04:35:00,78.0,72.1,29.99,SE,130,0.0,2.0,82,0.00,,FEW028,0.00,VWS V13.01,2013-10-04 08:35:00,
2013-10-04 04:40:00,78.1,72.2,29.98,ESE,119,0.0,2.0,82,0.00,,FEW028,0.00,VWS V13.01,2013-10-04 08:40:00,
2013-10-04 04:45:00,78.2,71.9,29.98,ESE,119,0.0,2.0,81,0.00,,FEW028,0.00,VWS V13.01,2013-10-04 08:45:00,
2013-10-04 04:50:00,78.4,72.1,29.98,ESE,119,1.0,2.0,81,0.00,,FEW028,0.00,VWS V13.01,2013-10-04 08:50:00,
2013-10-04 04:55:00,78.2,72.3,29.98,ESE,119,1.0,2.0,82,0.00,,FEW028,0.00,VWS V13.01,2013-10-04 08:55:00,
2013-10-04 05:00:00,78.1,72.2,29.98,ESE,119,0.0,2.0,82,0.00,,FEW028,0.00,VWS V13.01,2013-10-04 09:00:00,
2013-10-04 05:05:00,77.7,72.1,29.98,ESE,119,0.0,1.0,83,0.00,,FEW028,0.00,VWS V13.01,2013-10-04 09:05:00,
2013-10-04 05:10:00,77.8,72.2,29.98,ESE,119,0.0,2.0,83,0.00,,FEW028,0.00,VWS V13.01,2013-10-04 09:10:00,
2013-10-04 05:15:00,78.0,72.1,29.98,ESE,119,1.0,2.0,82,0.00,,FEW028,0.00,VWS V13.01,2013-10-04 09:15:00,
2013-10-04 05:21:00,78.1,72.2,29.98,ESE,119,1.0,2.0,82,0.00,,FEW028,0.00,VWS V13.01,2013-10-04 09:21:00,
2013-10-04 05:25:00,78.3,72.0,29.98,ESE,119,0.0,2.0,81,0.00,,FEW028,0.00,VWS V13.01,2013-10-04 09:25:00,
2013-10-04 05:30:00,78.5,72.2,29.98,ESE,119,0.0,2.0,81,0.00,,FEW028,0.00,VWS V13.01,2013-10-04 09:30:00,
2013-10-04 05:35:00,78.4,72.1,29.98,ESE,119,1.0,2.0,81,0.00,,FEW028,0.00,VWS V13.01,2013-10-04 09:35:00,
2013-10-04 05:40:00,78.3,72.0,29.98,ESE,119,1.0,2.0,81,0.00,,FEW028,0.00,VWS V13.01,2013-10-04 09:40:00,
2013-10-04 05:45:00,78.2,71.9,29.98,ESE,119,0.0,2.0,81,0.00,,FEW028,0.00,VWS V13.01,2013-10-04 09:45:00,
2013-10-04 05:50:00,78.3,72.0,29.98,ESE,119,1.0,2.0,81,0.00,,FEW028,0.00,VWS V13.01,2013-10-04 09:50:00,
2013-10-04 05:55:00,78.3,72.0,29.99,ESE,119,0.0,2.0,81,0.00,,FEW028,0.00,VWS V13.01,2013-10-04 09:55:00,
2013-10-04 06:00:00,78.0,71.7,29.99,ESE,119,1.0,2.0,81,0.00,,FEW028,0.00,VWS V13.01,2013-10-04 10:00:00,
2013-10-04 06:05:00,78.0,71.7,29.99,ESE,119,0.0,2.0,81,0.00,,FEW028,0.00,VWS V13.01,2013-10-04 10:05:00,
2013-10-04 06:10:00,78.1,71.4,29.99,ESE,119,1.0,2.0,80,0.00,,FEW028,0.00,VWS V13.01,2013-10-04 10:10:00,
2013-10-04 06:16:00,78.2,71.5,29.99,ESE,118,1.0,2.0,80,0.00,,FEW028,0.00,VWS V13.01,2013-10-04 10:16:00,
2013-10-04 06:21:00,78.2,71.5,29.99,ESE,118,1.0,2.0,80,0.00,,FEW028,0.00,VWS V13.01,2013-10-04 10:21:00,
2013-10-04 06:26:00,78.4,71.3,29.99,East,100,0.0,4.0,79,0.00,,FEW028,0.00,VWS V13.01,2013-10-04 10:26:00,
2013-10-04 06:31:00,78.3,71.3,29.99,ESE,119,2.0,4.0,79,0.00,,FEW028,0.00,VWS V13.01,2013-10-04 10:31:00,
2013-10-04 06:36:00,78.4,71.3,29.99,SE,127,0.0,4.0,79,0.00,,FEW028,0.00,VWS V13.01,2013-10-04 10:36:00,
2013-10-04 06:41:00,78.5,71.4,30.00,SE,124,1.0,4.0,79,0.00,,FEW028,0.00,VWS V13.01,2013-10-04 10:41:00,
2013-10-04 06:46:00,78.5,71.4,30.00,ESE,112,1.0,4.0,79,0.00,,FEW028,0.00,VWS V13.01,2013-10-04 10:46:00,
2013-10-04 06:51:00,78.6,71.2,30.00,ESE,118,1.0,4.0,78,0.00,,FEW028,0.00,VWS V13.01,2013-10-04 10:51:00,
2013-10-04 06:56:00,78.7,71.3,30.00,ESE,118,2.0,4.0,78,0.00,,FEW028,0.00,VWS V13.01,2013-10-04 10:56:00,
2013-10-04 07:01:00,78.9,71.5,30.00,ESE,116,1.0,4.0,78,0.00,,SCT035,0.00,VWS V13.01,2013-10-04 11:01:00,
2013-10-04 07:06:00,78.7,71.6,30.00,ESE,116,0.0,2.0,79,0.00,,SCT035,0.00,VWS V13.01,2013-10-04 11:06:00,
2013-10-04 07:11:00,78.6,71.6,30.00,ESE,116,1.0,2.0,79,0.00,,SCT035,0.00,VWS V13.01,2013-10-04 11:11:00,
2013-10-04 07:16:00,78.5,71.8,30.00,ESE,111,1.0,4.0,80,0.00,,SCT035,0.00,VWS V13.01,2013-10-04 11:16:00,
2013-10-04 07:21:00,78.6,71.9,30.00,ESE,111,1.0,4.0,80,0.00,,SCT035,0.00,VWS V13.01,2013-10-04 11:21:00,
2013-10-04 07:26:00,78.6,72.3,30.00,ESE,111,0.0,4.0,81,0.00,,SCT035,0.00,VWS V13.01,2013-10-04 11:26:00,
2013-10-04 07:31:00,78.7,72.0,30.00,ESE,113,0.0,4.0,80,0.00,,SCT035,0.00,VWS V13.01,2013-10-04 11:31:00,
2013-10-04 07:36:00,79.0,72.3,30.00,ESE,114,1.0,2.0,80,0.00,,SCT035,0.00,VWS V13.01,2013-10-04 11:36:00,
2013-10-04 07:41:00,78.9,72.2,30.01,ESE,114,2.0,2.0,80,0.00,,SCT035,0.00,VWS V13.01,2013-10-04 11:41:00,
2013-10-04 07:46:00,79.3,72.2,30.01,ESE,113,0.0,4.0,79,0.00,,SCT035,0.00,VWS V13.01,2013-10-04 11:46:00,
2013-10-04 07:51:00,79.8,72.3,30.01,ESE,108,0.0,4.0,78,0.00,,SCT035,0.00,VWS V13.01,2013-10-04 11:51:00,
2013-10-04 07:56:00,80.2,72.3,30.01,SE,128,2.0,4.0,77,0.00,,SCT035,0.00,VWS V13.01,2013-10-04 11:56:00,
2013-10-04 08:01:00,80.5,72.2,30.01,East,90,2.0,4.0,76,0.00,,SCT033,0.00,VWS V13.01,2013-10-04 12:01:00,
2013-10-04 08:06:00,81.2,72.1,30.01,ESE,116,1.0,5.0,74,0.00,,SCT033,0.00,VWS V13.01,2013-10-04 12:06:00,
2013-10-04 08:11:00,81.4,71.9,30.01,East,92,2.0,5.0,73,0.00,,SCT033,0.00,VWS V13.01,2013-10-04 12:11:00,
2013-10-04 08:16:00,81.8,72.3,30.02,SE,128,0.0,5.0,73,0.00,,SCT033,0.00,VWS V13.01,2013-10-04 12:16:00,
2013-10-04 08:21:00,82.0,72.1,30.02,ESE,107,4.0,5.0,72,0.00,,SCT033,0.00,VWS V13.01,2013-10-04 12:21:00,
2013-10-04 08:26:00,82.2,72.3,30.02,ESE,122,4.0,5.0,72,0.00,,SCT033,0.00,VWS V13.01,2013-10-04 12:26:00,
2013-10-04 08:31:00,81.9,72.0,30.02,SE,126,4.0,5.0,72,0.00,,SCT033,0.00,VWS V13.01,2013-10-04 12:31:00,
2013-10-04 08:36:00,81.8,72.3,30.03,SE,136,2.0,4.0,73,0.00,,SCT033,0.00,VWS V13.01,2013-10-04 12:36:00,
2013-10-04 08:41:00,82.3,72.0,30.03,East,101,1.0,4.0,71,0.00,,SCT033,0.00,VWS V13.01,2013-10-04 12:41:00,
2013-10-04 08:46:00,82.5,73.0,30.03,SE,132,0.0,6.0,73,0.00,,SCT033,0.00,VWS V13.01,2013-10-04 12:46:00,
2013-10-04 08:51:00,82.9,73.4,30.03,ESE,107,4.0,6.0,73,0.00,,SCT033,0.00,VWS V13.01,2013-10-04 12:51:00,
2013-10-04 08:56:00,83.4,73.0,30.03,SE,125,2.0,8.0,71,0.00,,SCT033,0.00,VWS V13.01,2013-10-04 12:56:00,
2013-10-04 09:01:00,83.8,73.0,30.03,SE,132,4.0,8.0,70,0.00,,SCT035,0.00,VWS V13.01,2013-10-04 13:01:00,
2013-10-04 09:06:00,83.9,73.1,30.03,East,97,7.0,7.0,70,0.00,,SCT035,0.00,VWS V13.01,2013-10-04 13:06:00,
2013-10-04 09:11:00,83.8,73.8,30.03,East,89,4.0,8.0,72,0.00,,SCT035,0.00,VWS V13.01,2013-10-04 13:11:00,
2013-10-04 09:16:00,83.9,72.7,30.03,East,92,5.0,8.0,69,0.00,,SCT035,0.00,VWS V13.01,2013-10-04 13:16:00,
2013-10-04 09:21:00,83.9,72.7,30.04,East,96,5.0,9.0,69,0.00,,SCT035,0.00,VWS V13.01,2013-10-04 13:21:00,
2013-10-04 09:26:00,83.9,73.1,30.04,East,84,3.0,9.0,70,0.00,,SCT035,0.00,VWS V13.01,2013-10-04 13:26:00,
2013-10-04 09:31:00,84.4,73.1,30.03,SE,124,6.0,9.0,69,0.00,,SCT035,0.00,VWS V13.01,2013-10-04 13:31:00,
2013-10-04 09:36:00,84.5,72.8,30.03,SE,140,5.0,9.0,68,0.00,,SCT035,0.00,VWS V13.01,2013-10-04 13:36:00,
2013-10-04 09:41:00,84.6,72.9,30.03,ESE,113,4.0,11.0,68,0.00,,SCT035,0.00,VWS V13.01,2013-10-04 13:41:00,
2013-10-04 09:46:00,85.0,72.8,30.03,ESE,117,4.0,11.0,67,0.00,,SCT035,0.00,VWS V13.01,2013-10-04 13:46:00,
2013-10-04 09:51:00,85.3,73.1,30.03,SE,128,8.0,11.0,67,0.00,,SCT035,0.00,VWS V13.01,2013-10-04 13:51:00,
2013-10-04 09:56:00,84.9,72.3,30.03,ESE,103,4.0,12.0,66,0.00,,SCT035,0.00,VWS V13.01,2013-10-04 13:56:00,
2013-10-04 10:01:00,85.2,72.6,30.03,SE,126,1.0,12.0,66,0.00,,FEW029,0.00,VWS V13.01,2013-10-04 14:01:00,
2013-10-04 10:06:00,85.2,73.0,30.03,East,92,2.0,9.0,67,0.00,,FEW029,0.00,VWS V13.01,2013-10-04 14:06:00,
2013-10-04 10:11:00,85.3,73.1,30.03,SE,132,2.0,9.0,67,0.00,,FEW029,0.00,VWS V13.01,2013-10-04 14:11:00,
2013-10-04 10:16:00,85.5,72.8,30.03,ESE,121,5.0,9.0,66,0.00,,FEW029,0.00,VWS V13.01,2013-10-04 14:16:00,
2013-10-04 10:21:00,85.6,72.5,30.03,East,87,2.0,9.0,65,0.00,,FEW029,0.00,VWS V13.01,2013-10-04 14:21:00,
2013-10-04 10:26:00,85.7,73.5,30.03,East,93,2.0,9.0,67,0.00,,FEW029,0.00,VWS V13.01,2013-10-04 14:26:00,
2013-10-04 10:30:00,85.5,72.4,30.04,East,97,6.0,11.0,65,0.00,,FEW029,0.00,VWS V13.01,2013-10-04 14:30:00,
2013-10-04 10:35:00,85.0,71.9,30.04,East,86,3.0,8.0,65,0.00,,FEW029,0.00,VWS V13.01,2013-10-04 14:35:00,
2013-10-04 10:40:00,84.8,71.7,30.04,East,83,7.0,8.0,65,0.00,,FEW029,0.00,VWS V13.01,2013-10-04 14:40:00,
2013-10-04 10:45:00,84.8,72.2,30.04,East,81,2.0,8.0,66,0.00,,FEW029,0.00,VWS V13.01,2013-10-04 14:45:00,
2013-10-04 10:50:00,84.9,72.3,30.04,SE,138,5.0,12.0,66,0.00,,FEW029,0.00,VWS V13.01,2013-10-04 14:50:00,
2013-10-04 10:55:00,85.5,71.9,30.04,ESE,105,4.0,12.0,64,0.00,,FEW029,0.00,VWS V13.01,2013-10-04 14:55:00,
2013-10-04 11:00:00,86.3,72.2,30.05,East,93,5.0,12.0,63,0.00,,SCT100,0.00,VWS V13.01,2013-10-04 15:00:00,
2013-10-04 11:05:00,85.6,72.5,30.05,East,89,3.0,7.0,65,0.00,,SCT100,0.00,VWS V13.01,2013-10-04 15:05:00,
2013-10-04 11:10:00,85.9,71.8,30.05,ENE,70,3.0,10.0,63,0.00,,SCT100,0.00,VWS V13.01,2013-10-04 15:10:00,
2013-10-04 11:15:00,86.6,72.5,30.04,ENE,77,4.0,10.0,63,0.00,,SCT100,0.00,VWS V13.01,2013-10-04 15:15:00,
2013-10-04 11:17:00,86.9,72.8,30.04,ENE,70,3.0,10.0,63,0.00,,SCT100,0.00,VWS V13.01,2013-10-04 15:17:00,
2013-10-04 11:22:00,86.9,72.3,30.04,SE,128,5.0,10.0,62,0.00,,SCT100,0.00,VWS V13.01,2013-10-04 15:22:00,
2013-10-04 11:27:00,86.6,72.5,30.04,ENE,57,4.0,10.0,63,0.00,,SCT100,0.00,VWS V13.01,2013-10-04 15:27:00,
2013-10-04 11:32:00,86.8,72.2,30.04,ENE,74,2.0,6.0,62,0.00,,SCT100,0.00,VWS V13.01,2013-10-04 15:32:00,
2013-10-04 11:37:00,86.1,71.6,30.04,NNE,19,5.0,7.0,62,0.00,,SCT100,0.00,VWS V13.01,2013-10-04 15:37:00,
2013-10-04 11:42:00,86.3,72.7,30.04,ENE,73,4.0,7.0,64,0.00,,SCT100,0.00,VWS V13.01,2013-10-04 15:42:00,
2013-10-04 11:47:00,86.6,72.0,30.04,ENE,68,3.0,7.0,62,0.00,,SCT100,0.00,VWS V13.01,2013-10-04 15:47:00,
2013-10-04 11:52:00,86.8,72.7,30.05,ESE,103,5.0,7.0,63,0.00,,SCT100,0.00,VWS V13.01,2013-10-04 15:52:00,
2013-10-04 11:57:00,86.5,72.4,30.04,NE,56,3.0,7.0,63,0.00,,SCT100,0.00,VWS V13.01,2013-10-04 15:57:00,
2013-10-04 12:02:00,86.6,73.0,30.04,East,92,6.0,8.0,64,0.00,,SCT035,0.00,VWS V13.01,2013-10-04 16:02:00,
2013-10-04 12:07:00,86.6,72.5,30.04,East,79,4.0,8.0,63,0.00,,SCT035,0.00,VWS V13.01,2013-10-04 16:07:00,
2013-10-04 12:12:00,86.5,72.9,30.04,East,98,2.0,8.0,64,0.00,,SCT035,0.00,VWS V13.01,2013-10-04 16:12:00,
2013-10-04 12:17:00,86.7,72.6,30.04,ENE,71,3.0,8.0,63,0.00,,SCT035,0.00,VWS V13.01,2013-10-04 16:17:00,
2013-10-04 12:22:00,87.4,72.3,30.04,East,99,5.0,8.0,61,0.00,,SCT035,0.00,VWS V13.01,2013-10-04 16:22:00,
2013-10-04 12:27:00,87.1,72.0,30.04,SE,126,5.0,8.0,61,0.00,,SCT035,0.00,VWS V13.01,2013-10-04 16:27:00,
2013-10-04 12:32:00,86.6,72.0,30.03,SE,127,2.0,5.0,62,0.00,,SCT035,0.00,VWS V13.01,2013-10-04 16:32:00,
2013-10-04 12:37:00,86.2,72.1,30.03,SE,142,1.0,8.0,63,0.00,,SCT035,0.00,VWS V13.01,2013-10-04 16:37:00,
2013-10-04 12:42:00,86.8,71.8,30.03,East,82,4.0,8.0,61,0.00,,SCT035,0.00,VWS V13.01,2013-10-04 16:42:00,
2013-10-04 12:47:00,86.2,72.1,30.03,East,100,5.0,8.0,63,0.00,,SCT035,0.00,VWS V13.01,2013-10-04 16:47:00,
2013-10-04 12:52:00,85.7,71.7,30.03,ESE,108,5.0,8.0,63,0.00,,SCT035,0.00,VWS V13.01,2013-10-04 16:52:00,
2013-10-04 12:57:00,85.9,72.3,30.02,ESE,109,6.0,12.0,64,0.00,,SCT035,0.00,VWS V13.01,2013-10-04 16:57:00,
2013-10-04 13:02:00,86.7,72.6,30.02,ENE,74,5.0,7.0,63,0.00,,SCT035,0.00,VWS V13.01,2013-10-04 17:02:00,
2013-10-04 13:07:00,87.0,72.4,30.02,ESE,117,2.0,8.0,62,0.00,,SCT035,0.00,VWS V13.01,2013-10-04 17:07:00,
2013-10-04 13:12:00,86.9,71.8,30.02,ENE,63,3.0,8.0,61,0.00,,SCT035,0.00,VWS V13.01,2013-10-04 17:12:00,
2013-10-04 13:17:00,87.5,72.4,30.01,ENE,57,4.0,9.0,61,0.00,,SCT035,0.00,VWS V13.01,2013-10-04 17:17:00,
2013-10-04 13:22:00,88.4,72.3,30.01,East,86,2.0,9.0,59,0.00,,SCT035,0.00,VWS V13.01,2013-10-04 17:22:00,
2013-10-04 13:27:00,87.5,72.4,30.01,East,93,6.0,11.0,61,0.00,,SCT035,0.00,VWS V13.01,2013-10-04 17:27:00,
2013-10-04 13:32:00,87.9,72.3,30.01,ESE,106,4.0,6.0,60,0.00,,SCT035,0.00,VWS V13.01,2013-10-04 17:32:00,
2013-10-04 13:37:00,87.7,73.6,30.01,ESE,111,7.0,8.0,63,0.00,,SCT035,0.00,VWS V13.01,2013-10-04 17:37:00,
2013-10-04 14:02:00,86.6,70.6,30.00,ESE,109,5.0,13.0,59,0.00,,FEW036,0.00,VWS V13.01,2013-10-04 18:02:00,
2013-10-04 14:07:00,87.4,71.8,30.00,ENE,61,6.0,8.0,60,0.00,,FEW036,0.00,VWS V13.01,2013-10-04 18:07:00,
2013-10-04 14:12:00,86.3,71.3,30.00,SE,132,2.0,11.0,61,0.00,,FEW036,0.00,VWS V13.01,2013-10-04 18:12:00,
2013-10-04 14:17:00,86.3,71.3,30.00,NE,55,4.0,11.0,61,0.00,,FEW036,0.00,VWS V13.01,2013-10-04 18:17:00,
2013-10-04 14:22:00,87.0,70.9,30.00,ENE,78,2.0,11.0,59,0.00,,FEW036,0.00,VWS V13.01,2013-10-04 18:22:00,
2013-10-04 14:27:00,87.5,71.4,29.99,ESE,108,5.0,11.0,59,0.00,,FEW036,0.00,VWS V13.01,2013-10-04 18:27:00,
2013-10-04 14:32:00,87.6,71.5,29.99,East,101,2.0,5.0,59,0.00,,FEW036,0.00,VWS V13.01,2013-10-04 18:32:00,
2013-10-04 14:37:00,86.8,70.3,29.99,SE,126,6.0,12.0,58,0.00,,FEW036,0.00,VWS V13.01,2013-10-04 18:37:00,
2013-10-04 14:42:00,87.2,71.1,29.99,ENE,63,2.0,12.0,59,0.00,,FEW036,0.00,VWS V13.01,2013-10-04 18:42:00,
2013-10-04 14:47:00,87.2,70.6,29.99,SE,138,2.0,12.0,58,0.00,,FEW036,0.00,VWS V13.01,2013-10-04 18:47:00,
2013-10-04 14:52:00,87.2,70.6,29.99,East,86,6.0,12.0,58,0.00,,FEW036,0.00,VWS V13.01,2013-10-04 18:52:00,
2013-10-04 14:57:00,87.8,71.2,29.99,East,88,6.0,12.0,58,0.00,,FEW036,0.00,VWS V13.01,2013-10-04 18:57:00,
2013-10-04 15:02:00,87.1,71.0,29.99,East,101,6.0,7.0,59,0.00,,CLR,0.00,VWS V13.01,2013-10-04 19:02:00,
2013-10-04 15:07:00,87.5,69.9,29.99,NE,51,2.0,8.0,56,0.00,,CLR,0.00,VWS V13.01,2013-10-04 19:07:00,
2013-10-04 15:12:00,87.7,71.6,29.98,ESE,116,2.0,8.0,59,0.00,,CLR,0.00,VWS V13.01,2013-10-04 19:12:00,
2013-10-04 15:17:00,87.1,71.0,29.98,SE,130,4.0,11.0,59,0.00,,CLR,0.00,VWS V13.01,2013-10-04 19:17:00,
2013-10-04 15:22:00,86.9,71.3,29.98,ESE,109,4.0,11.0,60,0.00,,CLR,0.00,VWS V13.01,2013-10-04 19:22:00,
2013-10-04 15:27:00,86.5,71.0,29.98,ENE,72,2.0,11.0,60,0.00,,CLR,0.00,VWS V13.01,2013-10-04 19:27:00,
2013-10-04 15:32:00,87.2,72.6,29.98,ENE,61,3.0,4.0,62,0.00,,CLR,0.00,VWS V13.01,2013-10-04 19:32:00,
2013-10-04 15:37:00,87.2,71.6,29.98,ESE,105,7.0,11.0,60,0.00,,CLR,0.00,VWS V13.01,2013-10-04 19:37:00,
2013-10-04 15:42:00,86.6,72.0,29.98,ESE,121,5.0,11.0,62,0.00,,CLR,0.00,VWS V13.01,2013-10-04 19:42:00,
2013-10-04 15:47:00,87.4,72.3,29.98,SSE,160,4.0,11.0,61,0.00,,CLR,0.00,VWS V13.01,2013-10-04 19:47:00,
2013-10-04 15:52:00,86.3,71.8,29.98,NE,53,6.0,11.0,62,0.00,,CLR,0.00,VWS V13.01,2013-10-04 19:52:00,
2013-10-04 15:57:00,86.5,71.9,29.98,East,101,5.0,11.0,62,0.00,,CLR,0.00,VWS V13.01,2013-10-04 19:57:00,
2013-10-04 16:02:00,86.6,72.0,29.98,East,97,4.0,6.0,62,0.00,,SCT035,0.00,VWS V13.01,2013-10-04 20:02:00,
2013-10-04 16:07:00,87.2,71.6,29.98,SE,133,4.0,10.0,60,0.00,,SCT035,0.00,VWS V13.01,2013-10-04 20:07:00,
2013-10-04 16:12:00,87.0,71.9,29.98,SE,138,2.0,10.0,61,0.00,,SCT035,0.00,VWS V13.01,2013-10-04 20:12:00,
2013-10-04 16:17:00,86.8,71.3,29.98,ESE,118,6.0,10.0,60,0.00,,SCT035,0.00,VWS V13.01,2013-10-04 20:17:00,
2013-10-04 16:22:00,86.1,71.6,29.98,East,93,6.0,10.0,62,0.00,,SCT035,0.00,VWS V13.01,2013-10-04 20:22:00,
2013-10-04 16:27:00,86.3,71.8,29.98,ENE,68,6.0,10.0,62,0.00,,SCT035,0.00,VWS V13.01,2013-10-04 20:27:00,
2013-10-04 16:32:00,85.9,70.4,29.98,ESE,121,6.0,8.0,60,0.00,,SCT035,0.00,VWS V13.01,2013-10-04 20:32:00,
2013-10-04 16:37:00,85.5,70.0,29.98,ENE,64,4.0,11.0,60,0.00,,SCT035,0.00,VWS V13.01,2013-10-04 20:37:00,
2013-10-04 16:42:00,85.7,69.2,29.98,East,100,5.0,11.0,58,0.00,,SCT035,0.00,VWS V13.01,2013-10-04 20:42:00,
2013-10-04 16:47:00,85.6,69.6,29.98,East,85,2.0,11.0,59,0.00,,SCT035,0.00,VWS V13.01,2013-10-04 20:47:00,
2013-10-04 16:52:00,85.6,69.6,29.98,ESE,109,6.0,11.0,59,0.00,,SCT035,0.00,VWS V13.01,2013-10-04 20:52:00,
2013-10-04 16:57:00,85.7,70.2,29.97,East,91,4.0,12.0,60,0.00,,SCT035,0.00,VWS V13.01,2013-10-04 20:57:00,
2013-10-04 17:02:00,85.3,70.8,29.97,East,81,3.0,6.0,62,0.00,,SCT150,0.00,VWS V13.01,2013-10-04 21:02:00,
2013-10-04 17:07:00,84.8,70.8,29.97,East,96,2.0,11.0,63,0.00,,SCT150,0.00,VWS V13.01,2013-10-04 21:07:00,
2013-10-04 17:12:00,84.7,70.7,29.98,ESE,118,4.0,11.0,63,0.00,,SCT150,0.00,VWS V13.01,2013-10-04 21:12:00,
2013-10-04 17:16:00,84.2,71.2,29.98,East,98,5.0,11.0,65,0.00,,SCT150,0.00,VWS V13.01,2013-10-04 21:16:00,
2013-10-04 17:21:00,84.2,71.2,29.97,ESE,123,7.0,11.0,65,0.00,,SCT150,0.00,VWS V13.01,2013-10-04 21:21:00,
2013-10-04 17:26:00,83.7,70.7,29.97,East,89,5.0,11.0,65,0.00,,SCT150,0.00,VWS V13.01,2013-10-04 21:26:00,
2013-10-04 17:31:00,83.9,70.9,29.98,ESE,112,5.0,8.0,65,0.00,,SCT150,0.00,VWS V13.01,2013-10-04 21:31:00,
2013-10-04 17:36:00,83.7,71.1,29.98,ESE,113,2.0,8.0,66,0.00,,SCT150,0.00,VWS V13.01,2013-10-04 21:36:00,
2013-10-04 17:41:00,83.6,71.1,29.98,ENE,78,2.0,11.0,66,0.00,,SCT150,0.00,VWS V13.01,2013-10-04 21:41:00,
2013-10-04 17:46:00,83.8,71.2,29.98,East,92,8.0,11.0,66,0.00,,SCT150,0.00,VWS V13.01,2013-10-04 21:46:00,
2013-10-04 17:51:00,83.3,70.8,29.98,East,101,4.0,11.0,66,0.00,,SCT150,0.00,VWS V13.01,2013-10-04 21:51:00,
2013-10-04 17:56:00,83.7,71.1,29.98,NE,42,1.0,11.0,66,0.00,,SCT150,0.00,VWS V13.01,2013-10-04 21:56:00,
2013-10-04 18:01:00,83.4,70.9,29.98,ESE,119,1.0,4.0,66,0.00,,SCT150,0.00,VWS V13.01,2013-10-04 22:01:00,
2013-10-04 18:06:00,83.2,70.2,29.98,East,88,3.0,8.0,65,0.00,,SCT150,0.00,VWS V13.01,2013-10-04 22:06:00,
2013-10-04 18:11:00,82.9,70.4,29.98,ENE,78,5.0,8.0,66,0.00,,SCT150,0.00,VWS V13.01,2013-10-04 22:11:00,
2013-10-04 18:16:00,83.2,70.7,29.98,ENE,67,1.0,8.0,66,0.00,,SCT150,0.00,VWS V13.01,2013-10-04 22:16:00,
2013-10-04 18:21:00,83.2,70.7,29.98,ESE,107,6.0,8.0,66,0.00,,SCT150,0.00,VWS V13.01,2013-10-04 22:21:00,
2013-10-04 18:26:00,83.2,70.7,29.98,ESE,115,4.0,8.0,66,0.00,,SCT150,0.00,VWS V13.01,2013-10-04 22:26:00,
2013-10-04 18:31:00,82.9,70.4,29.98,ENE,78,5.0,5.0,66,0.00,,SCT150,0.00,VWS V13.01,2013-10-04 22:31:00,
2013-10-04 18:36:00,82.9,70.8,29.98,East,97,4.0,8.0,67,0.00,,SCT150,0.00,VWS V13.01,2013-10-04 22:36:00,
2013-10-04 18:41:00,82.8,71.2,29.98,East,79,1.0,8.0,68,0.00,,SCT150,0.00,VWS V13.01,2013-10-04 22:41:00,
2013-10-04 18:46:00,82.7,70.6,29.98,East,90,4.0,8.0,67,0.00,,SCT150,0.00,VWS V13.01,2013-10-04 22:46:00,
2013-10-04 18:51:00,82.5,70.9,29.98,ESE,111,5.0,8.0,68,0.00,,SCT150,0.00,VWS V13.01,2013-10-04 22:51:00,
2013-10-04 18:56:00,82.5,70.4,29.98,ENE,78,4.0,8.0,67,0.00,,SCT150,0.00,VWS V13.01,2013-10-04 22:56:00,
2013-10-04 19:01:00,82.2,70.6,29.98,SE,127,5.0,5.0,68,0.00,,SCT150,0.00,VWS V13.01,2013-10-04 23:01:00,
2013-10-04 19:06:00,82.1,70.1,29.98,East,92,4.0,6.0,67,0.00,,SCT150,0.00,VWS V13.01,2013-10-04 23:06:00,
2013-10-04 19:11:00,82.0,70.0,29.98,East,94,5.0,6.0,67,0.00,,SCT150,0.00,VWS V13.01,2013-10-04 23:11:00,
2013-10-04 19:16:00,82.0,70.4,29.98,ESE,103,5.0,6.0,68,0.00,,SCT150,0.00,VWS V13.01,2013-10-04 23:16:00,
2013-10-04 19:21:00,81.8,70.2,29.98,ESE,118,4.0,7.0,68,0.00,,SCT150,0.00,VWS V13.01,2013-10-04 23:21:00,
2013-10-04 19:26:00,81.7,70.1,29.98,East,88,2.0,7.0,68,0.00,,SCT150,0.00,VWS V13.01,2013-10-04 23:26:00,
2013-10-04 19:31:00,81.6,70.0,29.98,East,98,5.0,5.0,68,0.00,,SCT150,0.00,VWS V13.01,2013-10-04 23:31:00,
2013-10-04 19:36:00,81.7,70.1,29.99,ESE,113,2.0,5.0,68,0.00,,SCT150,0.00,VWS V13.01,2013-10-04 23:36:00,
2013-10-04 19:41:00,81.5,70.4,29.99,East,86,2.0,5.0,69,0.00,,SCT150,0.00,VWS V13.01,2013-10-04 23:41:00,
2013-10-04 19:46:00,81.4,70.3,29.99,ENE,67,4.0,8.0,69,0.00,,SCT150,0.00,VWS V13.01,2013-10-04 23:46:00,
2013-10-04 19:51:00,81.3,70.2,29.99,ENE,69,1.0,8.0,69,0.00,,SCT150,0.00,VWS V13.01,2013-10-04 23:51:00,
2013-10-04 19:56:00,81.5,70.4,29.99,ENE,74,4.0,8.0,69,0.00,,SCT150,0.00,VWS V13.01,2013-10-04 23:56:00,
2013-10-04 20:01:00,81.4,70.3,29.99,ENE,75,2.0,8.0,69,0.00,,SCT120,0.00,VWS V13.01,2013-10-05 00:01:00,
2013-10-04 20:06:00,81.4,70.3,29.99,ENE,64,3.0,5.0,69,0.00,,SCT120,0.00,VWS V13.01,2013-10-05 00:06:00,
2013-10-04 20:11:00,81.1,70.0,30.00,East,87,4.0,5.0,69,0.00,,SCT120,0.00,VWS V13.01,2013-10-05 00:11:00,
2013-10-04 20:17:00,81.1,70.0,30.00,ESE,105,5.0,7.0,69,0.00,,SCT120,0.00,VWS V13.01,2013-10-05 00:17:00,
2013-10-04 20:22:00,81.2,70.1,30.00,ENE,74,1.0,7.0,69,0.00,,SCT120,0.00,VWS V13.01,2013-10-05 00:22:00,
2013-10-04 20:27:00,81.2,70.1,30.00,East,84,3.0,7.0,69,0.00,,SCT120,0.00,VWS V13.01,2013-10-05 00:27:00,
2013-10-04 20:32:00,81.0,69.9,30.00,East,92,1.0,2.0,69,0.00,,SCT120,0.00,VWS V13.01,2013-10-05 00:32:00,
2013-10-04 20:37:00,80.9,69.8,30.00,East,90,1.0,4.0,69,0.00,,SCT120,0.00,VWS V13.01,2013-10-05 00:37:00,
2013-10-04 20:41:00,80.8,69.7,30.00,ENE,76,1.0,4.0,69,0.00,,SCT120,0.00,VWS V13.01,2013-10-05 00:41:00,
2013-10-04 20:46:00,80.7,69.6,30.00,East,90,2.0,5.0,69,0.00,,SCT120,0.00,VWS V13.01,2013-10-05 00:46:00,
2013-10-04 20:51:00,80.7,69.6,30.00,East,79,2.0,5.0,69,0.00,,SCT120,0.00,VWS V13.01,2013-10-05 00:51:00,
2013-10-04 20:57:00,80.5,70.2,30.01,East,82,1.0,5.0,71,0.00,,SCT120,0.00,VWS V13.01,2013-10-05 00:57:00,
2013-10-04 21:01:00,80.5,70.2,30.01,ENE,59,3.0,4.0,71,0.00,,CLR,0.00,VWS V13.01,2013-10-05 01:01:00,
2013-10-04 21:06:00,80.7,70.4,30.01,ENE,71,3.0,4.0,71,0.00,,CLR,0.00,VWS V13.01,2013-10-05 01:06:00,
2013-10-04 21:11:00,80.6,70.8,30.01,ENE,67,1.0,4.0,72,0.00,,CLR,0.00,VWS V13.01,2013-10-05 01:11:00,
2013-10-04 21:16:00,80.5,70.7,30.01,East,83,1.0,4.0,72,0.00,,CLR,0.00,VWS V13.01,2013-10-05 01:16:00,
2013-10-04 21:21:00,80.7,70.8,30.02,East,94,1.0,4.0,72,0.00,,CLR,0.00,VWS V13.01,2013-10-05 01:21:00,
2013-10-04 21:26:00,80.6,70.8,30.02,ESE,103,2.0,4.0,72,0.00,,CLR,0.00,VWS V13.01,2013-10-05 01:26:00,
2013-10-04 21:31:00,80.5,71.1,30.02,East,88,1.0,1.0,73,0.00,,CLR,0.00,VWS V13.01,2013-10-05 01:31:00,
2013-10-04 21:36:00,80.6,71.2,30.02,East,87,1.0,2.0,73,0.00,,CLR,0.00,VWS V13.01,2013-10-05 01:36:00,
2013-10-04 21:41:00,80.4,71.0,30.02,East,87,0.0,2.0,73,0.00,,CLR,0.00,VWS V13.01,2013-10-05 01:41:00,
2013-10-04 21:46:00,80.3,71.3,30.02,East,84,1.0,3.0,74,0.00,,CLR,0.00,VWS V13.01,2013-10-05 01:46:00,
2013-10-04 21:51:00,80.2,71.2,30.03,ENE,69,2.0,5.0,74,0.00,,CLR,0.00,VWS V13.01,2013-10-05 01:51:00,
2013-10-04 21:56:00,80.3,71.3,30.03,ENE,63,0.0,5.0,74,0.00,,CLR,0.00,VWS V13.01,2013-10-05 01:56:00,
2013-10-04 22:02:00,80.3,71.3,30.03,ENE,63,1.0,2.0,74,0.00,,FEW040,0.00,VWS V13.01,2013-10-05 02:02:00,
2013-10-04 22:07:00,80.3,71.3,30.03,ENE,65,0.0,2.0,74,0.00,,FEW040,0.00,VWS V13.01,2013-10-05 02:07:00,
2013-10-04 22:12:00,80.2,71.2,30.03,ENE,65,0.0,2.0,74,0.00,,FEW040,0.00,VWS V13.01,2013-10-05 02:12:00,
2013-10-04 22:17:00,80.3,70.9,30.03,ENE,66,1.0,2.0,73,0.00,,FEW040,0.00,VWS V13.01,2013-10-05 02:17:00,
2013-10-04 22:22:00,80.5,70.7,30.03,ENE,69,1.0,3.0,72,0.00,,FEW040,0.00,VWS V13.01,2013-10-05 02:22:00,
2013-10-04 22:27:00,80.4,70.6,30.03,ENE,78,0.0,3.0,72,0.00,,FEW040,0.00,VWS V13.01,2013-10-05 02:27:00,
2013-10-04 22:32:00,80.4,70.6,30.03,East,99,1.0,1.0,72,0.00,,FEW040,0.00,VWS V13.01,2013-10-05 02:32:00,
2013-10-04 22:37:00,80.6,70.3,30.03,East,99,1.0,2.0,71,0.00,,FEW040,0.00,VWS V13.01,2013-10-05 02:37:00,
2013-10-04 22:42:00,80.6,70.3,30.03,East,86,1.0,4.0,71,0.00,,FEW040,0.00,VWS V13.01,2013-10-05 02:42:00,
2013-10-04 22:47:00,80.3,70.1,30.03,East,88,2.0,4.0,71,0.00,,FEW040,0.00,VWS V13.01,2013-10-05 02:47:00,
2013-10-04 22:52:00,80.4,69.7,30.03,East,92,2.0,4.0,70,0.00,,FEW040,0.00,VWS V13.01,2013-10-05 02:52:00,
2013-10-04 22:57:00,80.5,69.8,30.03,East,86,0.0,4.0,70,0.00,,FEW040,0.00,VWS V13.01,2013-10-05 02:57:00,
2013-10-04 23:02:00,80.2,69.5,30.03,East,86,1.0,1.0,70,0.00,,FEW120,0.00,VWS V13.01,2013-10-05 03:02:00,
2013-10-04 23:07:00,80.1,69.4,30.03,East,86,0.0,2.0,70,0.00,,FEW120,0.00,VWS V13.01,2013-10-05 03:07:00,
2013-10-04 23:12:00,80.0,69.8,30.03,East,86,0.0,2.0,71,0.00,,FEW120,0.00,VWS V13.01,2013-10-05 03:12:00,
2013-10-04 23:17:00,80.0,69.8,30.03,East,86,0.0,2.0,71,0.00,,FEW120,0.00,VWS V13.01,2013-10-05 03:17:00,
2013-10-04 23:22:00,79.8,69.6,30.03,East,86,1.0,2.0,71,0.00,,FEW120,0.00,VWS V13.01,2013-10-05 03:22:00,
2013-10-04 23:27:00,79.4,69.6,30.03,East,86,0.0,2.0,72,0.00,,FEW120,0.00,VWS V13.01,2013-10-05 03:27:00,
2013-10-04 23:32:00,79.5,69.7,30.03,East,86,0.0,1.0,72,0.00,,FEW120,0.00,VWS V13.01,2013-10-05 03:32:00,
2013-10-04 23:37:00,79.7,69.9,30.03,ENE,75,0.0,3.0,72,0.00,,FEW120,0.00,VWS V13.01,2013-10-05 03:37:00,
2013-10-04 23:42:00,79.6,69.8,30.02,ENE,75,1.0,3.0,72,0.00,,FEW120,0.00,VWS V13.01,2013-10-05 03:42:00,
2013-10-04 23:47:00,79.6,69.8,30.02,ENE,75,0.0,3.0,72,0.00,,FEW120,0.00,VWS V13.01,2013-10-05 03:47:00,
2013-10-04 23:52:00,79.6,69.8,30.02,ENE,75,0.0,3.0,72,0.00,,FEW120,0.00,VWS V13.01,2013-10-05 03:52:00,
2013-10-04 23:57:00,79.3,69.5,30.02,ENE,75,1.0,3.0,72,0.00,,FEW120,0.00,VWS V13.01,2013-10-05 03:57:00,